This is the latest recevied weather packets stored in our database for station/object KN6ZYR. If no packets are shown the sender has not sent any weather packets the latest 1 day(s).
| Time | Temp. | Humidity | Pressure | Rain* | Wind** | Luminosity | Snow |
|---|---|---|---|---|---|---|---|
| 1836274696 | 15.56° C | 95% | 1021.8 hPa | 0 mm | 0 m/s | 0 W/m² | - |
| 1836274549 | 16.11° C | 95% | 1021.8 hPa | 0 mm | 0 m/s | 0 W/m² | - |
| 1836274394 | 16.11° C | 95% | 1021.9 hPa | 0 mm | 0 m/s | 0 W/m² | - |
| 1836274247 | 15.56° C | 95% | 1021.8 hPa | 0 mm | 0 m/s | 0 W/m² | - |
| 1836274092 | 15.56° C | 95% | 1021.8 hPa | 0 mm | 0 m/s | 0 W/m² | - |
| 1778041112 | 12.78° C | 65% | 1018.5 hPa | 0 mm | 1.79 m/s, 310° | 0 W/m² | - |
| 1778040809 | 12.78° C | 64% | 1018.8 hPa | 0 mm | 1.34 m/s, 302° | 0 W/m² | - |
| 1778040506 | 12.78° C | 63% | 1018.8 hPa | 0 mm | 1.79 m/s, 343° | 0 W/m² | - |
| 1778040203 | 12.78° C | 66% | 1018.7 hPa | 0 mm | 1.34 m/s, 344° | 0 W/m² | - |
| 1778039899 | 12.78° C | 67% | 1018.4 hPa | 0 mm | 2.24 m/s, 285° | 0 W/m² | - |
| 1778039597 | 12.78° C | 65% | 1018.4 hPa | 0 mm | 0.45 m/s, 279° | 0 W/m² | - |
| 1778039294 | 13.33° C | 64% | 1018.4 hPa | 0 mm | 0.89 m/s, 297° | 0 W/m² | - |
| 1778038991 | 13.33° C | 63% | 1018.2 hPa | 0 mm | 0.89 m/s, 275° | 0 W/m² | - |
| 1778038688 | 13.33° C | 61% | 1018 hPa | 0 mm | 0.45 m/s, 270° | 0 W/m² | - |
| 1778038385 | 13.33° C | 62% | 1018 hPa | 0 mm | 1.79 m/s, 286° | 0 W/m² | - |
| 1778038082 | 13.89° C | 62% | 1018 hPa | 0 mm | 0.89 m/s, 268° | 0 W/m² | - |
| 1778037779 | 13.89° C | 60% | 1017.9 hPa | 0 mm | 2.24 m/s, 304° | 0 W/m² | - |
| 1778037475 | 13.89° C | 59% | 1018 hPa | 0 mm | 1.79 m/s, 291° | 0 W/m² | - |
| 1778037173 | 13.89° C | 57% | 1017.6 hPa | 0 mm | 2.68 m/s, 292° | 0 W/m² | - |
| 1778036871 | 14.44° C | 55% | 1017.6 hPa | 0 mm | 2.24 m/s, 293° | 0 W/m² | - |
| 1778036568 | 14.44° C | 54% | 1017.4 hPa | 0 mm | 1.34 m/s, 289° | 0 W/m² | - |
| 1778036265 | 15° C | 53% | 1017.2 hPa | 0 mm | 1.34 m/s, 318° | 1 W/m² | - |
| 1778035961 | 15° C | 53% | 1017.3 hPa | 0 mm | 1.34 m/s, 327° | 2 W/m² | - |
| 1778035658 | 15° C | 51% | 1017.2 hPa | 0 mm | 1.34 m/s, 331° | 3 W/m² | - |
| 1778035355 | 15.56° C | 50% | 1017.2 hPa | 0 mm | 1.34 m/s, 279° | 6 W/m² | - |
* Rain latest hour (hover to see other rain measurements)
** Current wind speed in m/s (hover to see current wind gust speed)